Weather History for KDNV - October, 2013

Change the Weather History Date:

Tuesday, October 29, 2013

  Actual Average (KLAF) Record (KLAF)
Temperature  
Mean Temperature 44 °F 50 °F  
Max Temperature 55 °F 60 °F 81 °F (1971)
Min Temperature 32 °F 40 °F 23 °F (1988)
Degree Days  
Heating Degree Days 22 15  
Month to date heating degree days 317  
Since 1 July heating degree days 402  
Cooling Degree Days 0 0  
Month to date cooling degree days 13  
Year to date cooling degree days 978  
Moisture  
Dew Point 38 °F    
Average Humidity 77    
Maximum Humidity 89    
Minimum Humidity 61    
Precipitation  
Precipitation 0.01 in 0.10 in 0.54 in (1974)
Month to date precipitation 2.71  
Year to date precipitation 30.92  
Sea Level Pressure  
Sea Level Pressure 30.23 in    
Wind  
Wind Speed 5 mph (East)    
Max Wind Speed 10 mph    
Max Gust Speed -    
Visibility 9 miles    
Events Rain    
T = Trace of Precipitation, MM = Missing Value Source: NWS Daily Summary

Daily Weather History Graph

Daily Weather History Graph

Search for Another Location

Airport or City:

Trip Planner

Search our weather history database for the weather conditions in past years. The results will help you decide how hot, cold, wet, or windy it might be!

Date:

Astronomy

Oct. 29, 2013 Rise Set
Actual Time 7:16 AM CDT 5:50 PM CDT
Civil Twilight 6:48 AM CDT 6:18 PM CDT
Nautical Twilight 6:16 AM CDT 6:50 PM CDT
Astronomical Twilight 5:45 AM CDT 7:22 PM CDT
Moon 2:06 AM CDT (10/29) 3:04 PM CDT (10/29)
Length of Visible Light 11h 30m
Length of Day
10h 34m
Waning Crescent, 25% of the Moon is Illuminated
Oct 29
Waning Crescent
Nov 3
New
Nov 9
First Quarter
Nov 17
Full
Nov 25
Last Quarter

Hourly Weather History & Observations

Time (CDT) Temp. Windchill Dew Point Humidity Pressure Visibility Wind Dir Wind Speed Gust Speed Precip Events Conditions
12:15 AM 38.5 °F 35.0 °F 28.9 °F 69% 30.28 in 10.0 mi NNE 4.6 mph - N/A   Clear
12:35 AM 37.8 °F 34.2 °F 29.3 °F 72% 30.28 in 10.0 mi NE 4.6 mph - N/A   Clear
12:55 AM 37.4 °F 33.8 °F 29.7 °F 74% 30.28 in 10.0 mi NNE 4.6 mph - N/A   Clear
1:15 AM 36.9 °F 33.1 °F 29.7 °F 75% 30.28 in 10.0 mi NNE 4.6 mph - N/A   Clear
1:35 AM 36.5 °F 32.7 °F 29.8 °F 77% 30.28 in 10.0 mi NE 4.6 mph - N/A   Clear
1:55 AM 36.9 °F 33.1 °F 29.3 °F 74% 30.28 in 10.0 mi NE 4.6 mph - N/A   Clear
2:15 AM 38.7 °F 35.2 °F 29.5 °F 70% 30.28 in 10.0 mi NE 4.6 mph - N/A   Clear
2:35 AM 38.7 °F 35.2 °F 30.2 °F 72% 30.28 in 10.0 mi NE 4.6 mph - N/A   Clear
2:55 AM 39.2 °F 34.2 °F 32.0 °F 75% 30.28 in 10.0 mi NE 6.9 mph - N/A   Clear
3:15 AM 39.0 °F 34.0 °F 32.9 °F 79% 30.27 in 7.0 mi ENE 6.9 mph - N/A   Clear
3:35 AM 38.1 °F 33.7 °F 32.2 °F 79% 30.26 in 10.0 mi ENE 5.8 mph - N/A   Clear
3:55 AM 36.9 °F 33.1 °F 32.0 °F 83% 30.26 in 7.0 mi ENE 4.6 mph - N/A   Clear
4:15 AM 36.5 °F 32.7 °F 32.0 °F 84% 30.26 in 10.0 mi ENE 4.6 mph - N/A   Clear
4:35 AM 36.7 °F 32.0 °F 32.2 °F 84% 30.27 in 10.0 mi ENE 5.8 mph - N/A   Clear
4:55 AM 36.5 °F 31.8 °F 32.2 °F 84% 30.28 in 10.0 mi ENE 5.8 mph - N/A   Clear
5:15 AM 36.7 °F 32.0 °F 32.5 °F 85% 30.28 in 10.0 mi ENE 5.8 mph - N/A   Clear
5:35 AM 35.6 °F 30.7 °F 32.0 °F 87% 30.28 in 10.0 mi ENE 5.8 mph - N/A   Clear
5:55 AM 34.9 °F 30.8 °F 31.1 °F 86% 30.28 in 10.0 mi East 4.6 mph - N/A   Clear
6:15 AM 33.8 °F 29.6 °F 30.0 °F 86% 30.28 in 10.0 mi East 4.6 mph - N/A   Clear
6:35 AM 32.9 °F - 29.3 °F 87% 30.29 in 10.0 mi Calm Calm - N/A   Clear
6:55 AM 33.3 °F 27.9 °F 30.0 °F 88% 30.28 in 10.0 mi East 5.8 mph - N/A   Clear
7:15 AM 34.2 °F 28.2 °F 31.1 °F 89% 30.28 in 7.0 mi ENE 6.9 mph - N/A   Clear
7:35 AM 35.6 °F 29.9 °F 32.2 °F 87% 30.28 in 7.0 mi ENE 6.9 mph - N/A   Clear
8:15 AM 36.0 °F 31.1 °F 32.4 °F 87% 30.29 in 10.0 mi ENE 5.8 mph - N/A   Clear
8:35 AM 36.5 °F 31.8 °F 32.9 °F 87% 30.29 in 10.0 mi East 5.8 mph - N/A   Clear
8:55 AM 37.6 °F 33.1 °F 34.2 °F 87% 30.30 in 7.0 mi East 5.8 mph - N/A   Clear
9:15 AM 39.6 °F 35.4 °F 36.1 °F 88% 30.30 in 10.0 mi East 5.8 mph - N/A   Clear
9:35 AM 41.4 °F 38.4 °F 37.8 °F 87% 30.29 in 10.0 mi East 4.6 mph - N/A   Clear
9:55 AM 42.8 °F 41.1 °F 39.0 °F 86% 30.30 in 7.0 mi ESE 3.5 mph - N/A   Clear
10:15 AM 43.2 °F 39.7 °F 39.2 °F 86% 30.29 in 7.0 mi ESE 5.8 mph - N/A   Clear
10:35 AM 43.7 °F 41.1 °F 39.4 °F 85% 30.29 in 10.0 mi East 4.6 mph - N/A   Clear
10:55 AM 44.6 °F 43.1 °F 40.3 °F 85% 30.29 in 10.0 mi East 3.5 mph - N/A   Clear
11:15 AM 45.7 °F 43.4 °F 41.0 °F 84% 30.28 in 10.0 mi East 4.6 mph - N/A   Clear
11:35 AM 46.9 °F - 41.9 °F 83% 30.28 in 10.0 mi East 4.6 mph - N/A   Clear
11:55 AM 48.2 °F - 42.3 °F 80% 30.28 in 10.0 mi ESE 5.8 mph - N/A   Clear
12:15 PM 49.1 °F - 42.1 °F 77% 30.26 in 10.0 mi ESE 6.9 mph - N/A   Clear
12:35 PM 49.5 °F - 40.3 °F 71% 30.25 in 10.0 mi ESE 8.1 mph - N/A   Scattered Clouds
12:55 PM 50.4 °F - 40.5 °F 69% 30.23 in 10.0 mi ESE 6.9 mph - N/A   Mostly Cloudy
1:15 PM 51.4 °F - 40.3 °F 66% 30.21 in 10.0 mi ESE 6.9 mph - N/A   Scattered Clouds
1:35 PM 52.2 °F - 40.1 °F 64% 30.20 in 10.0 mi SE 10.4 mph - N/A   Clear
1:55 PM 53.6 °F - 41.0 °F 62% 30.20 in 10.0 mi SE 8.1 mph - N/A   Clear
2:15 PM 54.3 °F - 42.3 °F 64% 30.20 in 10.0 mi SSE 8.1 mph - N/A   Clear
2:35 PM 55.6 °F - 42.6 °F 62% 30.19 in 10.0 mi SSE 6.9 mph - N/A   Scattered Clouds
2:55 PM 55.8 °F - 42.4 °F 61% 30.18 in 10.0 mi SE 5.8 mph - N/A   Scattered Clouds
3:15 PM 55.4 °F - 42.8 °F 63% 30.18 in 10.0 mi SE 5.8 mph - N/A   Scattered Clouds
3:35 PM 55.4 °F - 43.0 °F 63% 30.17 in 10.0 mi SE 5.8 mph - N/A   Scattered Clouds
3:55 PM 55.6 °F - 43.0 °F 63% 30.17 in 7.0 mi SE 9.2 mph - N/A   Scattered Clouds
4:15 PM 55.0 °F - 42.8 °F 63% 30.16 in 10.0 mi ESE 6.9 mph - N/A   Scattered Clouds
4:35 PM 54.5 °F - 43.0 °F 65% 30.16 in 10.0 mi ESE 5.8 mph - N/A   Mostly Cloudy
4:55 PM 54.1 °F - 42.8 °F 66% 30.16 in 10.0 mi ESE 4.6 mph - N/A   Mostly Cloudy
5:15 PM 53.6 °F - 42.8 °F 67% 30.15 in 7.0 mi ESE 5.8 mph - N/A Rain Light Rain
5:35 PM 53.1 °F - 43.2 °F 69% 30.15 in 10.0 mi ESE 5.8 mph - N/A   Overcast
5:55 PM 52.9 °F - 43.5 °F 71% 30.15 in 7.0 mi ESE 6.9 mph - N/A   Overcast
6:15 PM 52.3 °F - 43.7 °F 72% 30.16 in 10.0 mi ESE 5.8 mph - N/A   Overcast
6:35 PM 52.2 °F - 43.7 °F 73% 30.15 in 10.0 mi ESE 6.9 mph - N/A   Mostly Cloudy
6:55 PM 51.8 °F - 43.7 °F 74% 30.16 in 10.0 mi ESE 6.9 mph - N/A   Overcast
7:15 PM 51.8 °F - 43.7 °F 74% 30.16 in 10.0 mi ESE 5.8 mph - N/A   Overcast
7:35 PM 51.4 °F - 43.7 °F 75% 30.17 in 10.0 mi ESE 4.6 mph - N/A   Overcast
7:55 PM 51.3 °F - 43.7 °F 75% 30.17 in 10.0 mi ESE 5.8 mph - N/A   Overcast
8:15 PM 50.9 °F - 42.8 °F 74% 30.16 in 10.0 mi SE 4.6 mph - N/A Rain Light Rain
8:35 PM 49.6 °F - 42.3 °F 76% 30.16 in 7.0 mi SE 6.9 mph - N/A Rain Light Rain
8:55 PM 49.8 °F - 43.9 °F 80% 30.16 in 10.0 mi SE 6.9 mph - N/A   Overcast
9:15 PM 49.6 °F - 43.7 °F 80% 30.16 in 7.0 mi ESE 6.9 mph - N/A   Overcast
9:35 PM 49.1 °F - 43.5 °F 81% 30.15 in 7.0 mi SE 6.9 mph - N/A Rain Light Rain
9:55 PM 48.4 °F - 43.0 °F 82% 30.15 in 7.0 mi SE 5.8 mph - N/A Rain Light Rain
10:15 PM 48.2 °F - 43.0 °F 82% 30.16 in 7.0 mi SE 5.8 mph - N/A   Overcast
10:35 PM 48.2 °F - 42.8 °F 82% 30.15 in 5.0 mi SE 4.6 mph - N/A   Drizzle
10:55 PM 47.8 °F - 42.8 °F 83% 30.15 in 5.0 mi ESE 5.8 mph - N/A Rain Light Rain
11:15 PM 47.8 °F - 42.8 °F 83% 30.14 in 4.0 mi ESE 5.8 mph - 0.01 in   Drizzle
11:35 PM 47.7 °F - 42.8 °F 83% 30.14 in 4.0 mi East 3.5 mph - 0.01 in   Haze
11:55 PM 47.8 °F - 43.0 °F 83% 30.13 in 3.0 mi ESE 5.8 mph - 0.01 in   Light Drizzle